PIA370 OPKC-OPIS

Flight info

Callsign PIA370
Flight time 1h 30m
Altitude 39000
Route BADUL J112 NH Z301 BELKO
Aircraft B772/H-SDE2E3FGHIJ5LORVWXY/LB1D1

Departure

Time 2026-04-28 12:40
Airport Jinnah International Airport (OPKC)

Arrival

Time 2026-04-28 14:11
Airport Islamabad International Airport (OPIS)
Time Latitude Longitude Altitude Speed Heading
2026-04-28 11:53 24.90216 67.16515 105 ft 0 kts 124°
2026-04-28 12:19 24.90219 67.16509 105 ft 4 kts 123°
2026-04-28 12:19 24.90234 67.16484 105 ft 4 kts 122°
2026-04-28 12:19 24.90248 67.16459 104 ft 4 kts 120°
2026-04-28 12:19 24.90261 67.16433 106 ft 4 kts 115°
2026-04-28 12:20 24.90270 67.16405 106 ft 4 kts 99°
2026-04-28 12:20 24.90270 67.16384 105 ft 4 kts 27°
2026-04-28 12:20 24.90269 67.16381 105 ft 0 kts 345°
2026-04-28 12:29 24.90273 67.16380 105 ft 3 kts 345°
2026-04-28 12:30 24.90302 67.16371 107 ft 4 kts 345°
2026-04-28 12:30 24.90332 67.16362 107 ft 4 kts 345°
2026-04-28 12:30 24.90363 67.16363 107 ft 5 kts 15°
2026-04-28 12:30 24.90394 67.16390 105 ft 6 kts 60°
2026-04-28 12:31 24.90414 67.16448 106 ft 10 kts 73°
2026-04-28 12:31 24.90434 67.16532 106 ft 13 kts 75°
2026-04-28 12:31 24.90462 67.16643 107 ft 17 kts 74°
2026-04-28 12:31 24.90497 67.16777 106 ft 20 kts 75°
2026-04-28 12:32 24.90536 67.16935 106 ft 23 kts 75°
2026-04-28 12:32 24.90579 67.17104 107 ft 23 kts 73°
2026-04-28 12:32 24.90624 67.17273 107 ft 23 kts 73°
2026-04-28 12:32 24.90670 67.17402 107 ft 15 kts 54°
2026-04-28 12:33 24.90738 67.17456 108 ft 0 kts 29°
2026-04-28 12:38 24.90739 67.17457 108 ft 2 kts 29°
2026-04-28 12:39 24.90777 67.17480 109 ft 11 kts 29°
2026-04-28 12:39 24.90845 67.17470 111 ft 11 kts 315°
2026-04-28 12:39 24.90852 67.17391 109 ft 11 kts 253°
2026-04-28 12:39 24.90833 67.17311 112 ft 11 kts 255°
2026-04-28 12:40 24.90778 67.17096 109 ft 66 kts 254°
2026-04-28 12:40 24.90578 67.16314 109 ft 143 kts 255°
2026-04-28 12:40 24.90311 67.15209 836 ft 146 kts 254°
2026-04-28 12:40 24.90032 67.14085 1688 ft 149 kts 252°
2026-04-28 12:41 24.89762 67.12986 2674 ft 150 kts 259°
2026-04-28 12:41 24.89968 67.11831 3345 ft 177 kts 301°
2026-04-28 12:41 24.91129 67.11041 3666 ft 225 kts 344°
2026-04-28 12:41 24.92797 67.11255 4113 ft 256 kts 17°
2026-04-28 12:42 24.94357 67.12306 4851 ft 271 kts 40°
2026-04-28 12:42 24.95584 67.13892 5761 ft 269 kts 50°
2026-04-28 12:42 24.96672 67.15561 6419 ft 270 kts 52°
2026-04-28 12:42 24.97761 67.17265 6858 ft 273 kts 51°
2026-04-28 12:43 24.98880 67.18984 7712 ft 278 kts 50°
2026-04-28 12:43 25.00030 67.20714 8613 ft 282 kts 50°
2026-04-28 12:43 25.01210 67.22459 9535 ft 287 kts 49°
2026-04-28 12:43 25.02424 67.24235 10323 ft 293 kts 50°
2026-04-28 12:44 25.03663 67.26037 11161 ft 297 kts 50°
2026-04-28 12:44 25.04905 67.27838 12025 ft 301 kts 50°
2026-04-28 12:44 25.06195 67.29709 12912 ft 305 kts 50°
2026-04-28 12:44 25.07471 67.31557 13750 ft 309 kts 50°
2026-04-28 12:45 25.08776 67.33447 14564 ft 312 kts 50°
2026-04-28 12:45 25.10094 67.35357 15376 ft 313 kts 49°
2026-04-28 12:45 25.11569 67.37108 16050 ft 314 kts 37°
2026-04-28 12:45 25.13258 67.38652 16843 ft 316 kts 34°
2026-04-28 12:46 25.14984 67.40150 17718 ft 316 kts 34°
2026-04-28 12:46 25.16711 67.41677 18458 ft 320 kts 34°
2026-04-28 12:46 25.18439 67.43248 19124 ft 324 kts 35°
2026-04-28 12:46 25.20177 67.44856 19804 ft 328 kts 35°
2026-04-28 12:47 25.21929 67.46486 20488 ft 331 kts 35°
2026-04-28 12:47 25.23701 67.48131 21181 ft 334 kts 34°
2026-04-28 12:47 25.25500 67.49780 21867 ft 338 kts 34°
2026-04-28 12:47 25.27319 67.51439 22567 ft 341 kts 34°
2026-04-28 12:48 25.29160 67.53115 23240 ft 345 kts 34°
2026-04-28 12:48 25.31019 67.54807 23808 ft 348 kts 33°
2026-04-28 12:48 25.32897 67.56521 24371 ft 352 kts 33°
2026-04-28 12:48 25.34795 67.58254 24932 ft 356 kts 33°
2026-04-28 12:49 25.36714 67.60007 25460 ft 360 kts 33°
2026-04-28 12:49 25.38652 67.61778 26002 ft 364 kts 33°
2026-04-28 12:49 25.40614 67.63573 26556 ft 368 kts 33°
2026-04-28 12:49 25.42598 67.65389 27098 ft 372 kts 33°
2026-04-28 12:50 25.44602 67.67223 27656 ft 376 kts 33°
2026-04-28 12:50 25.46625 67.69077 28172 ft 380 kts 33°
2026-04-28 12:50 25.48670 67.70950 28721 ft 383 kts 33°
2026-04-28 12:50 25.50735 67.72844 29253 ft 388 kts 33°
2026-04-28 12:51 25.52820 67.74757 29779 ft 392 kts 33°
2026-04-28 12:51 25.54925 67.76690 30285 ft 394 kts 33°
2026-04-28 12:51 25.57034 67.78631 30849 ft 394 kts 33°
2026-04-28 12:51 25.59141 67.80571 31441 ft 394 kts 33°
2026-04-28 12:52 25.61219 67.82486 31971 ft 394 kts 32°
2026-04-28 12:52 25.63360 67.84457 32514 ft 396 kts 32°
2026-04-28 12:52 25.65485 67.86412 33027 ft 398 kts 32°
2026-04-28 12:52 25.67591 67.88350 33563 ft 399 kts 32°
2026-04-28 12:53 25.69730 67.90320 34014 ft 401 kts 32°
2026-04-28 12:53 25.71882 67.92302 34417 ft 404 kts 32°
2026-04-28 12:53 25.74057 67.94305 34790 ft 408 kts 32°
2026-04-28 12:53 25.75535 67.95667 35035 ft 410 kts 32°
2026-04-28 12:54 25.78457 67.98363 35547 ft 414 kts 32°
2026-04-28 12:54 25.80680 68.00415 35933 ft 417 kts 32°
2026-04-28 12:54 25.82917 68.02482 36301 ft 420 kts 32°
2026-04-28 12:54 25.85169 68.04564 36676 ft 423 kts 32°
2026-04-28 12:55 25.87442 68.06667 37022 ft 426 kts 32°
2026-04-28 12:55 25.89727 68.08782 37369 ft 429 kts 31°
2026-04-28 12:55 25.91280 68.10219 37595 ft 431 kts 31°
2026-04-28 12:55 25.93559 68.12331 37926 ft 434 kts 32°
2026-04-28 12:56 25.95883 68.14485 38236 ft 437 kts 32°
2026-04-28 12:56 25.98221 68.16653 38500 ft 439 kts 32°
2026-04-28 12:56 26.00582 68.18841 38557 ft 447 kts 32°
2026-04-28 12:57 26.05349 68.23274 38590 ft 442 kts 32°
2026-04-28 12:57 26.10025 68.27632 38608 ft 437 kts 31°
2026-04-28 12:58 26.14701 68.31976 38604 ft 439 kts 32°
2026-04-28 12:58 26.19388 68.36339 38603 ft 440 kts 31°
2026-04-28 12:59 26.24271 68.40348 38583 ft 431 kts 22°
2026-04-28 12:59 26.29524 68.43462 38598 ft 426 kts 18°
2026-04-28 13:00 26.34845 68.46397 38594 ft 428 kts 19°
2026-04-28 13:00 26.40136 68.49462 38605 ft 429 kts 20°
2026-04-28 13:01 26.45406 68.52611 38593 ft 430 kts 20°
2026-04-28 13:01 26.50667 68.55770 38591 ft 429 kts 20°
2026-04-28 13:02 26.55916 68.58916 38589 ft 427 kts 20°
2026-04-28 13:02 26.61146 68.62048 38595 ft 426 kts 20°
2026-04-28 13:03 26.66325 68.65147 38596 ft 425 kts 20°
2026-04-28 13:03 26.71514 68.68238 38598 ft 425 kts 20°
2026-04-28 13:04 26.76739 68.71352 38591 ft 425 kts 20°
2026-04-28 13:04 26.81960 68.74469 38594 ft 426 kts 20°
2026-04-28 13:05 26.87195 68.77600 38596 ft 427 kts 20°
2026-04-28 13:05 26.92431 68.80736 38593 ft 427 kts 20°
2026-04-28 13:06 26.97679 68.83882 38592 ft 428 kts 20°
2026-04-28 13:06 27.02928 68.87033 38611 ft 429 kts 20°
2026-04-28 13:07 27.08186 68.90193 38604 ft 429 kts 20°
2026-04-28 13:07 27.13446 68.93355 38597 ft 429 kts 20°
2026-04-28 13:08 27.18695 68.96516 38594 ft 427 kts 20°
2026-04-28 13:08 27.23930 68.99671 38602 ft 426 kts 20°
2026-04-28 13:09 27.29063 69.02768 38605 ft 426 kts 20°
2026-04-28 13:09 27.34280 69.05919 38623 ft 426 kts 20°
2026-04-28 13:10 27.39503 69.09076 38613 ft 427 kts 20°
2026-04-28 13:10 27.44702 69.12218 38610 ft 427 kts 20°
2026-04-28 13:11 27.49938 69.15384 38616 ft 427 kts 20°
2026-04-28 13:11 27.55177 69.18554 38612 ft 428 kts 20°
2026-04-28 13:12 27.60422 69.21733 38610 ft 428 kts 20°
2026-04-28 13:12 27.65672 69.24919 38626 ft 429 kts 20°
2026-04-28 13:13 27.70919 69.28108 38613 ft 428 kts 20°
2026-04-28 13:13 27.76163 69.31298 38611 ft 428 kts 20°
2026-04-28 13:14 27.81398 69.34486 38610 ft 427 kts 20°
2026-04-28 13:14 27.86626 69.37672 38610 ft 427 kts 20°
2026-04-28 13:15 27.91850 69.40859 38613 ft 427 kts 20°
2026-04-28 13:15 27.97078 69.44052 38624 ft 427 kts 20°
2026-04-28 13:16 28.02306 69.47249 38611 ft 428 kts 20°
2026-04-28 13:16 28.07545 69.50456 38612 ft 428 kts 20°
2026-04-28 13:17 28.12788 69.53669 38622 ft 429 kts 20°
2026-04-28 13:17 28.18040 69.56891 38613 ft 429 kts 20°
2026-04-28 13:18 28.23289 69.60118 38608 ft 429 kts 20°
2026-04-28 13:18 28.28501 69.63325 38615 ft 429 kts 20°
2026-04-28 13:19 28.33739 69.66550 38611 ft 428 kts 20°
2026-04-28 13:19 28.38974 69.69777 38612 ft 428 kts 20°
2026-04-28 13:20 28.44205 69.73005 38612 ft 428 kts 20°
2026-04-28 13:20 28.49436 69.76237 38613 ft 428 kts 20°
2026-04-28 13:21 28.54667 69.79470 38616 ft 428 kts 19°
2026-04-28 13:21 28.59926 69.82651 38621 ft 428 kts 19°
2026-04-28 13:22 28.65204 69.85809 38618 ft 429 kts 19°
2026-04-28 13:22 28.70483 69.88974 38608 ft 429 kts 19°
2026-04-28 13:23 28.75844 69.92192 38639 ft 445 kts 19°
2026-04-28 13:23 28.81426 69.95549 38638 ft 462 kts 20°
2026-04-28 13:24 28.87205 69.99042 38668 ft 477 kts 20°
2026-04-28 13:24 28.93011 70.02568 38632 ft 482 kts 20°
2026-04-28 13:25 28.98925 70.06169 38627 ft 482 kts 20°
2026-04-28 13:25 29.04833 70.09761 38615 ft 481 kts 20°
2026-04-28 13:26 29.10746 70.13355 38614 ft 481 kts 20°
2026-04-28 13:26 29.16656 70.16949 38615 ft 481 kts 20°
2026-04-28 13:27 29.22567 70.20551 38617 ft 481 kts 20°
2026-04-28 13:27 29.28433 70.24129 38610 ft 481 kts 20°
2026-04-28 13:28 29.34340 70.27736 38605 ft 481 kts 20°
2026-04-28 13:28 29.40237 70.31345 38610 ft 480 kts 20°
2026-04-28 13:29 29.46130 70.34957 38601 ft 480 kts 20°
2026-04-28 13:29 29.52029 70.38577 38616 ft 481 kts 20°
2026-04-28 13:30 29.57926 70.42199 38607 ft 481 kts 20°
2026-04-28 13:30 29.63822 70.45825 38604 ft 481 kts 20°
2026-04-28 13:31 29.72662 70.51271 38597 ft 481 kts 20°
2026-04-28 13:31 29.78553 70.54906 38600 ft 480 kts 21°
2026-04-28 13:32 29.84444 70.58545 38596 ft 480 kts 21°
2026-04-28 13:32 29.90333 70.62188 38595 ft 480 kts 21°
2026-04-28 13:33 29.96212 70.65833 38595 ft 480 kts 21°
2026-04-28 13:33 30.02086 70.69479 38598 ft 480 kts 21°
2026-04-28 13:34 30.07962 70.73130 38627 ft 480 kts 20°
2026-04-28 13:34 30.13801 70.76764 38602 ft 480 kts 20°
2026-04-28 13:35 30.19680 70.80427 38592 ft 480 kts 20°
2026-04-28 13:35 30.25582 70.84031 38593 ft 478 kts 19°
2026-04-28 13:36 30.31558 70.87376 38588 ft 477 kts 18°
2026-04-28 13:36 30.37550 70.90668 38624 ft 477 kts 18°
2026-04-28 13:37 30.43543 70.94015 38592 ft 478 kts 18°
2026-04-28 13:37 30.49525 70.97397 38586 ft 479 kts 18°
2026-04-28 13:38 30.55404 71.00732 38579 ft 479 kts 18°
2026-04-28 13:38 30.61386 71.04127 38586 ft 479 kts 18°
2026-04-28 13:39 30.67374 71.07527 38611 ft 479 kts 18°
2026-04-28 13:39 30.73361 71.10931 38589 ft 479 kts 18°
2026-04-28 13:40 30.79345 71.14337 38583 ft 479 kts 18°
2026-04-28 13:40 30.85321 71.17744 38586 ft 478 kts 18°
2026-04-28 13:41 30.91288 71.21150 38591 ft 477 kts 18°
2026-04-28 13:41 30.97206 71.24534 38604 ft 477 kts 18°
2026-04-28 13:42 31.03200 71.27965 38596 ft 477 kts 18°
2026-04-28 13:42 31.09154 71.31379 38601 ft 477 kts 18°
2026-04-28 13:43 31.15065 71.34772 38600 ft 477 kts 18°
2026-04-28 13:43 31.21012 71.38192 38606 ft 476 kts 18°
2026-04-28 13:44 31.26960 71.41617 38622 ft 477 kts 18°
2026-04-28 13:44 31.32917 71.45051 38620 ft 478 kts 18°
2026-04-28 13:45 31.38891 71.48502 38619 ft 479 kts 18°
2026-04-28 13:45 31.43901 71.51401 38621 ft 480 kts 18°
2026-04-28 13:46 31.49882 71.54866 38633 ft 480 kts 19°
2026-04-28 13:46 31.55842 71.58322 38633 ft 482 kts 19°
2026-04-28 13:47 31.61861 71.61816 38647 ft 484 kts 19°
2026-04-28 13:47 31.67898 71.65329 38644 ft 485 kts 19°
2026-04-28 13:48 31.73950 71.68859 38655 ft 486 kts 19°
2026-04-28 13:48 31.80011 71.72400 38661 ft 487 kts 19°
2026-04-28 13:49 31.86075 71.75946 38680 ft 487 kts 19°
2026-04-28 13:49 31.92143 71.79500 38671 ft 487 kts 19°
2026-04-28 13:50 31.95180 71.81282 38412 ft 488 kts 19°
2026-04-28 13:50 31.98229 71.83067 37506 ft 489 kts 20°
2026-04-28 13:50 32.01263 71.84845 36751 ft 487 kts 21°
2026-04-28 13:50 32.04293 71.86621 36007 ft 486 kts 22°
2026-04-28 13:51 32.07319 71.88395 35220 ft 486 kts 23°
2026-04-28 13:51 32.10359 71.90178 34316 ft 491 kts 24°
2026-04-28 13:51 32.13432 71.91979 33307 ft 495 kts 25°
2026-04-28 13:51 32.16527 71.93798 32211 ft 498 kts 25°
2026-04-28 13:52 32.19634 71.95638 31277 ft 499 kts 25°
2026-04-28 13:52 32.22716 71.97471 30594 ft 493 kts 25°
2026-04-28 13:52 32.25765 71.99284 29924 ft 489 kts 25°
2026-04-28 13:52 32.28694 72.01025 29192 ft 485 kts 25°
2026-04-28 13:53 32.31692 72.02802 28441 ft 479 kts 25°
2026-04-28 13:53 32.34655 72.04557 27727 ft 473 kts 25°
2026-04-28 13:53 32.37585 72.06292 27030 ft 468 kts 25°
2026-04-28 13:53 32.40481 72.08007 26362 ft 464 kts 25°
2026-04-28 13:54 32.43358 72.09713 25678 ft 460 kts 25°
2026-04-28 13:54 32.46213 72.11404 24988 ft 457 kts 24°
2026-04-28 13:54 32.49094 72.12971 24276 ft 454 kts 20°
2026-04-28 13:54 32.52014 72.14349 23593 ft 450 kts 19°
2026-04-28 13:55 32.54941 72.15613 22835 ft 446 kts 16°
2026-04-28 13:55 32.57856 72.16825 22109 ft 442 kts 17°
2026-04-28 13:55 32.60748 72.18025 21440 ft 438 kts 16°
2026-04-28 13:55 32.63603 72.19227 20800 ft 434 kts 16°
2026-04-28 13:56 32.66428 72.20443 20174 ft 430 kts 17°
2026-04-28 13:56 32.69226 72.21665 19553 ft 427 kts 17°
2026-04-28 13:56 32.71962 72.22874 18940 ft 424 kts 17°
2026-04-28 13:56 32.74714 72.24098 18332 ft 421 kts 17°
2026-04-28 13:57 32.77448 72.25318 17665 ft 419 kts 17°
2026-04-28 13:57 32.80168 72.26529 17005 ft 416 kts 18°
2026-04-28 13:57 32.82876 72.27731 16389 ft 414 kts 18°
2026-04-28 13:57 32.85567 72.28928 15802 ft 412 kts 17°
2026-04-28 13:58 32.88240 72.30118 15223 ft 409 kts 17°
2026-04-28 13:58 32.90896 72.31303 14639 ft 407 kts 17°
2026-04-28 13:58 32.93537 72.32483 14067 ft 404 kts 17°
2026-04-28 13:58 32.96164 72.33661 13494 ft 402 kts 17°
2026-04-28 13:59 32.98767 72.34829 12861 ft 398 kts 17°
2026-04-28 13:59 33.01338 72.35978 12257 ft 394 kts 17°
2026-04-28 13:59 33.03879 72.37115 11821 ft 385 kts 16°
2026-04-28 13:59 33.06371 72.38231 11296 ft 381 kts 17°
2026-04-28 14:00 33.08843 72.39334 10796 ft 377 kts 17°
2026-04-28 14:00 33.11248 72.40409 10628 ft 362 kts 16°
2026-04-28 14:00 33.13529 72.41436 10447 ft 333 kts 15°
2026-04-28 14:00 33.15574 72.42367 10296 ft 298 kts 15°
2026-04-28 14:01 33.17414 72.43198 10171 ft 269 kts 16°
2026-04-28 14:01 33.19111 72.43958 10081 ft 258 kts 15°
2026-04-28 14:01 33.20818 72.44715 9758 ft 266 kts 16°
2026-04-28 14:01 33.22577 72.45493 9231 ft 275 kts 17°
2026-04-28 14:02 33.24397 72.46302 8793 ft 281 kts 17°
2026-04-28 14:02 33.26224 72.47121 8466 ft 281 kts 18°
2026-04-28 14:02 33.28048 72.47940 8129 ft 281 kts 17°
2026-04-28 14:02 33.29892 72.48772 7770 ft 283 kts 18°
2026-04-28 14:03 33.31736 72.49602 7440 ft 283 kts 19°
2026-04-28 14:03 33.33575 72.50431 7143 ft 281 kts 20°
2026-04-28 14:03 33.35401 72.51254 6882 ft 279 kts 20°
2026-04-28 14:03 33.37208 72.52069 6682 ft 276 kts 20°
2026-04-28 14:04 33.39000 72.52879 6424 ft 274 kts 20°
2026-04-28 14:04 33.40788 72.53688 6053 ft 276 kts 21°
2026-04-28 14:04 33.42574 72.54496 5836 ft 272 kts 21°
2026-04-28 14:04 33.44312 72.55282 5569 ft 270 kts 21°
2026-04-28 14:05 33.46060 72.56073 5275 ft 268 kts 22°
2026-04-28 14:05 33.47800 72.56858 5027 ft 266 kts 22°
2026-04-28 14:05 33.49508 72.57621 4922 ft 257 kts 21°
2026-04-28 14:05 33.51183 72.58261 4863 ft 248 kts 18°
2026-04-28 14:06 33.52814 72.58840 4760 ft 240 kts 18°
2026-04-28 14:06 33.54377 72.59395 4684 ft 229 kts 19°
2026-04-28 14:06 33.55867 72.59931 4618 ft 216 kts 21°
2026-04-28 14:06 33.57071 72.60834 4470 ft 200 kts 52°
2026-04-28 14:07 33.57530 72.62319 4349 ft 185 kts 85°
2026-04-28 14:07 33.57515 72.63829 4103 ft 178 kts 93°
2026-04-28 14:07 33.57429 72.65263 4005 ft 171 kts 94°
2026-04-28 14:07 33.57272 72.66711 3971 ft 180 kts 98°
2026-04-28 14:08 33.57045 72.68238 3706 ft 189 kts 99°
2026-04-28 14:08 33.56803 72.69778 3472 ft 184 kts 101°
2026-04-28 14:08 33.56569 72.71262 3258 ft 178 kts 100°
2026-04-28 14:08 33.56349 72.72677 3031 ft 164 kts 99°
2026-04-28 14:09 33.56137 72.74024 2847 ft 161 kts 98°
2026-04-28 14:09 33.55935 72.75335 2599 ft 161 kts 98°
2026-04-28 14:09 33.55724 72.76686 2443 ft 166 kts 100°
2026-04-28 14:09 33.55514 72.78036 2189 ft 160 kts 100°
2026-04-28 14:10 33.55324 72.79277 1982 ft 147 kts 107°
2026-04-28 14:10 33.55135 72.80519 1850 ft 155 kts 106°
2026-04-28 14:10 33.54934 72.81762 1771 ft 143 kts 107°
2026-04-28 14:10 33.54769 72.82806 1766 ft 110 kts 101°
2026-04-28 14:11 33.54687 72.83329 1769 ft 20 kts 101°
2026-04-28 14:11 33.54720 72.83418 1771 ft 13 kts 21°
2026-04-28 14:11 33.54770 72.83429 1774 ft 6 kts 10°
2026-04-28 14:11 33.54811 72.83438 1772 ft 6 kts 10°
2026-04-28 14:12 33.54859 72.83448 1772 ft 7 kts 11°
2026-04-28 14:12 33.54911 72.83460 1773 ft 8 kts 11°
2026-04-28 14:12 33.54963 72.83473 1774 ft 8 kts 11°
2026-04-28 14:12 33.55015 72.83481 1773 ft 8 kts 352°
2026-04-28 14:13 33.55058 72.83444 1775 ft 8 kts 298°
2026-04-28 14:13 33.55073 72.83377 1775 ft 9 kts 280°
2026-04-28 14:13 33.55084 72.83303 1775 ft 10 kts 281°
2026-04-28 14:13 33.55097 72.83221 1776 ft 10 kts 281°
2026-04-28 14:14 33.55112 72.83132 1774 ft 11 kts 281°
2026-04-28 14:14 33.55130 72.83039 1774 ft 12 kts 298°
2026-04-28 14:14 33.55190 72.83023 1776 ft 8 kts 24°
2026-04-28 14:14 33.55231 72.83075 1777 ft 9 kts 55°
2026-04-28 14:15 33.55267 72.83140 1776 ft 10 kts 57°
2026-04-28 14:15 33.55310 72.83162 1777 ft 7 kts 341°
2026-04-28 14:15 33.55353 72.83129 1778 ft 6 kts 324°
2026-04-28 14:15 33.55366 72.83118 1778 ft 1 kts 325°
2026-04-28 14:16 33.55370 72.83115 1778 ft 0 kts 325°